Tracking 17694 objects as of 30-May-2016
HD Live streaming from Space Station
objects crossing your sky now

OPS 5058 (DMSP 5B F2)

Track OPS 5058 (DMSP 5B F2) now!
10-day predictions
OPS 5058 (DMSP 5B F2) is classified as:


NORAD ID: 5903
Int'l Code: 1972-018A
Perigee: 782.5 km
Apogee: 855.8 km
Inclination: 99.0 °
Period: 101.1 minutes
Semi major axis: 7190 km
RCS: 1.4687 m2 (large)
Launch date: March 24, 1972
Source: United States (US)
Launch site: AIR FORCE WESTERN TEST RANGE (AFWTR)
Your satellite tracking list
Your tracking list is empty





NASA's NSSDC Master Catalog

Two Line Element Set (TLE):
1 05903U 72018A   16150.77561038  .00000029  00000-0  32549-4 0  9993
2 05903  99.0394 202.0156 0050984 210.7226 149.0965 14.23947221367954
Source of the keplerian elements: AFSPC

N2YO: 527